Theta_e
312 312 312 312 311 311 312 312 311 310 311 311 312 311 311 311 311 311 311 311 311 312 313 313 314 314 314 314 314 314 314 309 305 301 299 301 306 316 321 323 326 322 322 306 300 297 294 292 296 293 295 295 295 293 295 297 293 293 288 281 282 281 283 285 287 287 291 290 293 293 292 299 299 303 309 313 309 308 307 308 309 323 323 325 329 334 336 337
312 312 311 312 312 312 312 311 311 311 311 311 311 311 311 311 311 311 311 312 312 312 313 313 314 314 314 314 314 314 312 308 302 300 301 309 321 319 322 327 327 327 317 304 298 294 293 293 293 292 293 294 293 295 294 293 295 288 284 283 283 282 285 289 289 290 292 291 292 292 291 295 300 303 302 306 304 306 306 307 316 319 324 328 330 332 334 335
313 312 313 312 312 311 311 311 311 311 311 311 310 311 310 310 311 311 312 312 313 313 313 314 314 314 314 314 314 315 310 304 301 298 303 320 320 321 321 324 325 327 307 303 300 295 296 295 295 292 291 291 289 292 292 292 294 288 287 284 283 286 287 289 290 292 291 292 293 292 292 300 301 298 301 305 302 304 306 308 310 316 319 325 328 331 332 333
312 312 312 312 311 311 311 311 311 311 311 311 311 311 311 311 312 312 312 312 313 313 313 314 314 314 314 314 315 312 307 301 296 301 305 321 324 322 322 324 326 323 303 303 297 295 295 295 293 293 291 290 289 290 292 290 292 289 288 285 286 287 289 291 291 293 293 292 292 291 291 296 296 296 303 303 304 303 303 309 312 315 321 324 328 329 331 330
311 311 311 312 311 311 312 312 312 312 311 311 311 311 311 311 312 312 312 312 313 313 314 313 314 314 314 314 314 311 300 290 299 305 310 325 328 324 324 326 328 314 307 299 296 295 294 295 294 292 292 290 289 290 288 289 290 290 289 288 289 288 290 293 292 291 291 291 291 290 294 296 298 303 304 306 302 302 305 309 308 320 324 325 326 328 329 327
311 311 312 312 312 312 312 312 312 312 312 311 311 311 311 312 312 312 312 313 313 313 313 313 313 314 314 314 308 305 296 285 299 303 329 329 328 325 327 330 328 307 298 296 296 295 296 294 292 290 288 290 290 288 288 289 293 288 286 287 289 291 291 292 294 291 292 292 291 291 293 294 298 301 303 301 302 303 301 308 312 323 326 327 328 327 325 323
311 311 312 312 312 312 313 313 313 313 313 313 312 313 312 312 312 312 313 313 313 313 313 313 313 314 314 312 305 301 293 294 301 305 329 331 330 326 328 328 317 301 298 296 295 295 293 293 292 290 289 289 287 287 289 292 292 290 286 286 290 289 291 292 293 292 291 293 293 292 292 294 297 299 300 298 295 296 302 310 318 323 326 327 324 324 323 322
311 311 312 312 312 313 313 313 313 313 313 313 313 313 313 313 313 312 312 312 312 312 313 313 313 314 314 307 302 295 295 295 302 311 333 332 328 328 314 299 298 297 298 295 294 294 294 293 293 293 290 289 288 289 291 291 290 289 288 289 290 291 291 292 291 290 290 291 292 292 293 292 296 297 298 299 295 297 307 314 319 322 323 322 322 320 319 319
311 311 312 312 312 313 313 313 313 313 313 313 313 313 313 313 312 312 312 312 312 312 313 313 313 313 313 306 298 293 295 301 307 317 316 311 307 303 303 301 297 297 294 293 294 293 295 292 293 293 291 290 291 292 289 290 287 289 291 292 290 291 291 292 291 292 290 291 292 294 292 292 292 295 299 297 297 304 309 314 317 319 319 319 318 318 318 317
311 312 312 312 312 312 312 312 312 313 313 313 313 313 312 312 312 312 312 312 312 312 312 313 313 313 306 301 294 290 301 307 312 314 308 302 298 299 298 298 297 296 296 295 295 295 295 294 296 296 295 293 294 292 291 290 289 289 289 290 291 293 291 291 290 289 290 291 291 293 292 293 292 294 292 295 302 306 309 311 314 317 316 316 316 315 314 315
311 311 312 312 312 312 312 312 313 313 313 313 313 313 313 312 312 312 312 312 311 311 312 312 313 310 303 301 292 290 305 302 307 309 305 299 298 298 298 297 297 297 296 294 296 297 297 296 297 296 296 292 293 290 290 291 291 291 291 291 290 289 288 289 289 290 290 293 290 291 290 291 290 294 289 293 303 306 306 308 311 314 314 314 313 313 310 313
311 311 312 312 312 312 312 312 312 313 313 313 313 313 313 312 312 311 311 312 312 312 312 313 312 309 306 302 291 294 306 302 308 308 305 298 297 297 299 298 298 298 297 295 296 297 298 297 297 297 292 295 290 292 291 291 294 292 292 289 287 285 290 290 291 291 292 293 290 289 292 289 288 292 292 297 304 305 306 306 309 310 310 310 311 310 308 311
311 311 311 311 312 312 312 312 312 312 312 313 313 313 313 313 312 312 311 311 311 311 311 312 312 309 303 291 295 301 306 303 307 306 306 303 301 301 300 300 298 298 299 297 295 297 298 298 299 296 295 295 291 290 293 293 292 292 289 289 288 283 285 291 290 290 292 293 289 292 285 279 285 286 289 302 303 303 303 303 305 306 306 308 309 308 306 306
311 311 311 311 312 312 312 312 312 312 312 313 313 313 313 313 312 312 312 311 312 313 313 312 311 306 301 292 298 304 307 304 304 304 303 306 301 299 301 301 300 299 303 298 298 298 298 297 298 297 295 294 292 293 293 288 289 290 288 284 281 282 284 288 289 289 293 292 290 293 285 281 285 286 290 297 303 304 302 302 303 303 305 307 307 307 306 304
311 311 311 311 311 312 312 312 312 312 312 313 313 313 313 313 313 312 312 312 311 312 313 312 307 301 293 295 302 307 322 307 306 302 302 301 299 298 299 301 301 301 300 299 300 301 299 298 297 294 290 295 295 292 287 283 283 283 284 280 280 281 283 287 290 290 290 291 290 290 282 285 289 288 290 295 303 302 302 302 302 301 304 306 306 305 304 304
311 311 311 311 311 311 311 312 312 312 312 313 313 312 313 313 312 313 312 312 311 311 309 306 305 301 294 292 303 318 307 304 303 307 302 302 298 297 298 299 299 302 302 301 302 303 300 297 294 291 293 293 285 280 280 283 280 281 284 278 283 281 283 285 290 287 290 290 290 291 285 284 288 288 289 292 303 301 301 301 301 301 302 304 305 304 302 303
311 311 311 311 311 311 311 311 311 312 312 312 312 312 312 312 312 311 312 312 311 311 308 301 304 303 291 298 305 301 301 302 304 305 303 301 300 298 297 296 296 295 297 299 301 299 297 296 297 293 290 287 285 285 284 276 278 276 281 283 282 284 283 283 286 290 289 291 288 288 288 286 288 286 289 293 297 299 300 301 300 300 300 303 304 304 303 303
310 311 311 310 311 311 311 311 311 311 312 311 309 309 307 311 313 311 310 310 309 309 307 309 303 296 293 298 296 297 303 301 302 302 302 301 300 299 298 297 296 295 294 293 295 294 294 293 291 288 284 285 284 281 280 277 280 281 281 281 284 282 283 286 285 291 291 289 288 286 287 287 287 287 288 290 293 297 300 300 300 299 299 301 304 303 302 303
310 310 310 311 310 311 311 311 311 311 311 310 308 312 312 311 309 306 303 306 297 293 290 295 293 290 287 295 298 301 303 304 302 302 301 300 300 298 300 298 294 294 291 290 291 294 290 288 287 284 284 281 283 284 280 283 282 284 283 283 283 283 285 287 287 287 292 288 287 285 286 287 286 286 287 291 292 295 298 297 296 297 298 299 302 303 302 303
310 310 310 311 311 310 310 310 310 311 311 307 303 305 303 297 291 295 302 301 296 296 296 296 297 297 299 299 299 303 304 301 300 299 299 302 301 298 296 296 295 291 291 289 288 292 294 286 284 281 281 284 286 285 286 286 286 287 284 282 282 284 283 284 286 287 291 288 284 285 284 284 286 286 288 289 290 291 292 294 295 295 297 299 301 303 302 302
310 310 310 311 310 311 311 310 311 310 310 307 304 303 295 295 290 290 295 297 300 300 298 298 299 299 299 301 302 302 300 300 297 297 299 304 296 297 292 292 286 290 285 289 290 293 290 284 283 285 287 288 288 288 288 288 289 287 284 284 284 283 287 289 291 291 293 288 284 286 286 284 286 287 288 290 290 290 290 292 293 294 297 298 301 302 302 302
310 310 311 311 311 311 311 311 310 310 309 305 304 299 302 301 305 304 299 293 298 300 300 300 301 300 302 303 304 304 302 298 298 298 298 300 297 293 290 287 287 287 285 288 286 282 281 282 287 288 289 289 290 289 289 289 286 285 287 284 285 282 282 286 289 290 292 290 284 285 286 285 287 289 291 290 291 290 290 292 294 295 296 298 299 301 302 301
310 311 311 311 311 311 311 311 310 310 306 301 299 304 303 305 307 305 303 296 295 299 299 299 299 298 300 303 305 305 298 297 295 297 296 297 293 294 289 288 287 287 288 289 287 282 284 281 287 290 290 291 290 289 288 287 285 282 283 284 283 282 286 282 286 288 291 289 288 288 288 286 287 288 290 292 292 291 291 291 292 295 296 298 299 302 303 302
310 310 311 311 311 311 311 310 307 305 301 299 299 301 306 304 303 304 301 294 292 296 299 300 300 299 298 301 303 302 298 297 297 296 300 297 292 291 290 285 285 287 286 287 285 284 284 287 291 290 290 291 290 289 288 286 287 284 286 284 283 287 285 285 285 288 287 290 288 285 284 283 283 286 288 290 292 292 292 292 292 291 294 298 299 299 303 302
310 310 310 310 311 311 311 309 303 303 302 301 301 303 304 306 308 305 301 294 293 296 304 300 303 301 303 306 306 301 298 296 296 298 299 296 291 291 290 289 289 284 284 285 285 285 285 288 291 290 290 290 289 287 287 287 284 281 283 288 287 285 289 287 286 283 280 280 286 286 281 276 280 284 286 289 289 290 290 290 291 292 292 293 296 298 301 303
310 310 311 311 310 310 308 302 302 302 300 302 305 305 306 307 308 305 295 287 284 290 297 294 304 297 305 298 302 298 296 293 296 297 297 297 300 293 292 289 288 288 284 286 285 283 286 289 292 291 289 289 289 287 287 288 282 284 287 288 288 286 287 286 286 285 280 280 285 286 281 273 280 285 287 287 287 289 290 289 291 291 292 292 295 298 299 302
310 311 310 311 310 308 298 297 302 302 299 301 303 304 306 311 309 308 299 280 278 293 294 298 297 296 301 299 297 296 286 287 295 297 297 302 297 298 290 283 287 289 286 287 284 285 291 289 289 288 288 287 287 285 287 289 285 283 287 287 288 287 287 287 285 285 279 283 285 283 280 279 278 281 287 288 287 288 289 291 291 292 292 292 294 295 297 301
310 310 311 311 309 308 298 300 299 299 301 304 304 307 309 310 308 305 286 274 275 294 292 293 296 301 301 299 297 293 293 295 289 294 296 297 297 292 291 286 287 285 288 287 281 283 287 288 288 287 285 285 285 286 289 290 287 285 288 288 287 287 287 286 285 282 282 282 281 277 284 281 275 281 286 287 287 286 288 289 290 291 293 292 293 294 296 299
310 310 310 310 308 309 300 299 300 301 302 303 308 309 313 305 304 295 277 273 287 291 301 293 303 298 293 296 295 290 292 293 290 293 294 296 295 293 289 286 286 284 287 288 283 282 287 288 288 289 288 286 286 286 290 291 288 290 288 287 286 286 286 284 280 282 280 279 273 279 281 280 276 277 282 284 286 284 287 289 290 291 291 292 293 293 294 297
309 309 309 309 304 303 299 301 299 302 308 308 310 310 308 302 293 285 277 273 292 285 294 294 294 291 291 290 289 289 294 291 294 293 293 292 292 293 291 289 288 287 287 285 285 285 288 293 297 290 288 288 288 289 290 291 291 289 287 284 283 281 279 280 278 277 279 271 275 279 280 281 277 277 281 283 286 286 286 287 289 290 291 292 292 292 293 294
309 309 308 309 297 305 302 294 298 306 308 310 308 304 303 295 282 272 271 280 293 289 291 289 290 290 290 290 286 288 291 289 290 292 290 292 291 287 289 289 286 281 279 278 283 283 285 287 291 290 294 290 290 286 287 287 287 288 284 281 282 283 278 280 275 276 270 267 274 276 280 280 276 276 280 282 285 285 286 286 288 289 291 291 291 291 292 294
308 307 308 303 302 306 300 296 299 310 309 307 304 299 297 287 284 277 277 292 283 286 286 285 287 287 286 288 286 287 288 287 288 290 288 285 286 286 285 282 280 279 276 276 281 282 282 284 284 287 298 292 288 287 284 285 283 285 283 282 280 276 270 272 273 273 272 270 279 279 280 280 278 279 284 286 286 288 287 287 288 289 290 291 291 291 291 294
307 307 309 308 308 301 303 302 308 309 307 305 298 294 284 274 275 276 282 285 282 287 286 288 286 285 285 283 283 286 287 287 288 289 290 287 286 283 283 285 283 285 279 279 279 278 279 281 285 286 288 293 289 284 282 284 281 283 282 278 276 271 265 265 265 267 273 276 278 279 280 278 278 282 285 285 288 289 289 290 290 290 290 291 292 292 292 291
307 307 300 306 306 306 307 311 309 310 305 300 298 291 282 276 279 297 286 284 287 288 288 286 286 284 283 284 286 286 282 288 286 287 287 284 283 282 282 284 284 286 283 279 281 275 273 276 281 284 285 289 289 288 286 281 281 283 281 284 281 275 272 267 270 268 273 274 277 280 279 274 276 280 287 288 289 290 291 291 290 291 290 291 292 294 293 292
306 304 301 303 305 308 308 308 307 308 298 295 287 281 276 274 277 280 282 283 286 287 287 286 285 282 283 281 284 287 288 284 287 285 282 284 280 281 282 285 285 284 280 280 280 276 280 277 282 286 288 288 288 288 285 282 282 281 281 283 280 279 276 278 272 275 275 275 274 278 276 276 280 285 288 288 289 289 290 290 292 290 291 291 292 292 293 294
306 303 304 305 310 311 309 310 305 303 297 288 279 276 275 280 283 284 286 288 288 286 285 285 280 278 278 277 282 284 288 286 285 283 282 284 282 284 284 283 287 285 282 279 277 279 278 278 284 285 287 288 288 289 289 286 280 282 283 282 281 283 281 272 274 276 272 271 270 269 277 280 280 285 288 286 287 288 288 289 289 289 290 291 291 291 292 293
303 305 305 306 311 312 312 309 308 301 296 286 278 278 278 287 287 285 291 288 288 286 281 281 281 282 280 280 279 280 285 286 284 283 280 282 283 284 285 287 289 287 284 286 281 280 281 277 281 284 286 289 287 288 287 286 286 283 280 281 285 286 282 278 272 268 265 267 267 275 274 278 278 275 284 287 286 288 287 288 289 289 289 290 290 290 291 292
301 303 312 307 311 306 309 307 304 299 291 285 280 293 289 288 291 290 290 287 289 285 280 280 282 284 279 280 278 282 284 281 282 281 281 281 282 288 285 286 289 290 289 288 284 283 283 277 279 283 284 286 286 288 286 288 286 284 282 285 285 277 279 278 274 269 268 266 262 269 274 274 276 278 281 285 284 286 286 287 287 288 288 288 289 291 292 293
297 298 300 303 306 304 307 304 302 295 287 284 276 286 290 291 293 289 290 290 288 284 284 282 283 282 281 279 279 280 282 280 282 280 279 281 278 286 287 287 288 289 289 287 283 282 282 278 277 283 286 285 284 283 279 281 285 287 285 283 283 280 277 276 274 275 274 267 266 269 274 273 278 276 282 284 284 285 285 285 286 286 287 288 288 289 292 293
299 296 295 306 303 301 305 304 295 289 286 284 283 284 291 289 290 290 288 290 288 286 284 284 284 282 283 282 281 284 282 281 280 281 281 281 282 286 286 287 287 289 287 289 286 287 282 280 272 279 283 284 283 281 282 278 282 283 280 279 280 279 281 279 280 278 276 264 263 263 265 271 276 279 283 285 284 285 286 286 286 286 287 287 287 288 289 291
296 294 294 303 303 300 298 296 291 288 286 288 288 289 288 288 290 289 288 289 289 291 288 286 282 282 281 282 283 283 281 279 280 280 280 282 281 277 286 287 287 287 287 285 285 283 278 279 276 277 281 281 279 281 284 282 283 281 281 280 280 278 280 277 273 277 276 276 268 264 269 274 280 286 286 285 285 285 287 286 286 286 286 286 287 288 288 290
290 286 292 301 300 297 293 285 284 286 282 283 285 288 287 297 286 286 288 288 289 287 288 286 285 284 281 283 281 281 281 280 279 280 281 279 285 282 287 287 286 285 286 282 284 287 285 279 280 277 280 281 281 284 285 286 285 284 282 283 282 279 278 274 270 272 276 276 276 274 269 271 281 285 286 286 286 286 286 286 286 286 286 286 287 288 289 290
288 288 298 301 299 295 288 281 283 282 283 285 288 288 288 287 287 287 287 288 287 288 286 286 286 285 284 285 284 281 282 281 279 279 280 281 283 287 288 287 287 288 284 282 284 288 300 278 277 278 278 279 281 282 284 284 284 284 281 280 281 283 281 280 277 276 276 274 275 273 270 271 281 286 286 286 286 287 285 285 286 286 286 287 288 289 290 291
289 289 295 301 298 293 288 282 282 282 283 287 286 287 288 288 287 286 286 285 286 286 287 286 286 286 285 284 282 283 284 279 282 282 281 282 283 287 287 287 289 289 290 288 283 287 279 277 279 272 268 273 277 277 280 281 281 278 280 280 279 280 280 280 280 279 275 275 277 274 271 271 284 288 285 285 284 285 286 286 286 287 287 288 289 289 290 291
291 290 293 294 296 293 284 283 280 274 283 283 283 284 285 287 287 290 289 287 287 286 285 284 285 286 284 284 282 283 284 282 281 282 281 283 284 287 287 287 289 289 294 298 299 289 281 279 277 272 269 267 265 264 267 269 277 280 279 279 281 280 279 280 275 274 271 272 277 273 267 276 281 283 282 283 283 285 286 286 288 286 288 289 289 290 291 291
287 281 284 285 289 289 288 288 286 282 279 282 280 283 285 283 288 289 287 287 287 287 284 286 284 284 283 283 281 281 283 284 282 281 282 282 282 285 287 286 288 290 297 299 296 288 281 280 280 276 275 274 277 276 277 279 277 278 280 278 279 280 278 279 275 269 271 268 273 274 276 279 282 282 280 282 281 285 286 287 287 288 288 288 287 289 290 290
286 281 280 279 284 285 283 284 286 285 282 285 280 284 283 283 285 287 289 286 287 286 285 284 284 284 282 282 280 281 282 283 283 282 282 282 282 284 285 285 286 294 297 293 295 279 278 276 278 279 278 279 278 278 279 281 280 278 278 279 278 278 278 278 273 273 276 274 271 276 277 277 279 279 279 280 281 283 284 286 287 287 287 287 287 288 293 289
281 283 284 286 282 280 280 280 287 284 285 286 282 284 282 280 280 281 285 287 286 286 284 283 283 283 283 283 281 279 280 279 279 279 282 282 281 282 283 285 284 289 290 285 288 284 280 275 278 279 278 278 278 279 279 280 279 279 279 279 279 278 278 277 275 278 277 273 274 275 277 276 276 278 280 281 282 283 285 288 287 287 287 287 287 288 288 288
286 283 286 288 282 281 283 285 287 285 282 286 283 283 280 280 280 283 283 283 282 283 284 278 281 282 282 283 281 279 280 278 275 279 279 280 280 280 279 281 286 283 284 282 283 281 280 273 278 278 278 278 278 278 278 279 278 279 280 279 280 278 278 279 279 277 279 279 280 279 276 278 279 279 281 282 284 283 283 285 285 287 287 288 287 287 287 287
283 282 282 285 282 282 283 282 283 281 280 286 280 283 282 281 280 282 283 283 277 282 284 281 281 282 282 282 279 280 281 280 282 277 281 280 278 279 280 280 279 281 282 282 283 283 282 274 283 279 277 278 277 278 278 278 278 278 278 278 277 277 277 277 278 278 280 279 279 278 275 277 279 280 282 283 284 284 285 285 286 286 286 287 286 287 287 287
287 287 288 283 279 282 285 280 281 279 276 280 279 283 283 282 281 283 282 285 284 282 283 283 283 282 281 281 281 281 283 281 281 283 282 280 279 280 281 280 282 280 279 281 282 281 281 274 278 279 272 273 277 278 278 278 277 277 277 278 277 277 275 275 276 278 277 276 277 276 273 274 278 279 281 284 285 285 285 284 283 285 285 286 286 288 287 287
287 288 288 283 279 285 281 279 279 278 277 281 284 284 283 283 283 283 279 285 284 284 284 285 283 282 280 281 280 282 284 284 284 283 284 283 283 282 283 282 281 282 279 279 279 280 278 275 273 271 272 270 276 277 279 277 276 276 275 276 279 279 280 278 279 280 281 281 275 271 276 280 279 282 285 285 283 283 282 283 283 285 285 286 286 288 287 287
Wind_Speed
10 9 9 9 9 9 10 10 9 9 9 9 9 9 9 8 8 9 8 8 8 9 10 10 11 12 12 13 14 15 12 9 10 3 0 11 8 6 9 5 4 8 5 1 2 3 2 3 2 4 2 1 2 1 1 1 1 1 1 4 1 3 1 4 4 5 1 2 7 9 5 1 3 2 2 8 8 6 5 6 2 6 6 5 4 12 13 10
10 10 10 10 10 9 9 9 9 8 8 9 9 9 9 9 9 8 8 8 8 9 10 10 12 12 13 13 13 14 10 7 7 5 14 8 7 11 10 8 9 9 7 2 2 2 2 1 1 3 2 1 2 0 0 0 0 2 2 2 5 3 5 5 4 5 1 6 6 6 5 1 0 1 1 5 4 5 7 3 3 7 7 10 11 13 13 10
11 10 10 9 10 9 9 9 9 8 8 8 8 8 8 8 8 8 8 8 9 9 9 11 11 12 12 13 13 10 9 4 2 4 7 8 16 11 12 10 7 6 2 1 2 4 1 1 0 2 3 1 4 1 2 0 2 2 3 3 6 5 3 5 4 5 4 4 9 8 6 1 2 1 0 4 5 4 9 8 3 5 8 10 10 13 11 11
11 10 10 10 9 9 9 9 9 9 9 9 9 9 8 8 9 9 9 9 9 9 10 10 11 12 13 13 12 7 3 3 0 1 3 6 5 13 11 10 7 5 4 1 3 3 3 3 3 4 2 3 3 1 0 2 1 1 1 4 4 3 1 4 6 8 7 3 5 5 4 1 1 0 2 7 9 0 3 6 13 14 13 12 12 12 12 11
11 10 10 10 9 9 10 10 10 10 10 10 10 9 9 9 10 9 9 9 9 10 10 10 11 12 13 13 12 2 0 1 0 2 5 6 4 11 9 10 9 5 4 4 4 3 4 2 1 3 3 0 2 1 2 1 2 3 6 4 5 1 2 8 4 5 4 4 3 4 1 1 0 3 6 11 9 8 10 12 4 12 17 17 15 13 11 12
11 11 10 10 10 10 10 9 9 9 9 9 9 9 9 9 9 9 9 9 9 10 10 10 11 12 13 14 2 3 0 3 1 2 4 4 6 10 10 9 9 7 5 4 2 1 2 3 3 2 1 1 0 2 2 1 0 3 4 3 6 5 4 4 1 4 1 3 4 4 3 2 2 2 4 3 4 1 3 1 5 14 18 18 17 15 13 12
11 11 11 10 10 10 10 10 10 11 11 10 10 10 10 9 9 9 10 9 9 10 10 10 11 12 13 9 3 1 0 4 2 5 4 6 7 12 11 10 10 6 4 4 1 0 1 3 3 1 2 0 2 2 5 0 0 2 4 1 6 3 6 6 5 3 4 2 7 3 3 2 5 2 3 3 3 4 2 6 7 5 5 13 15 14 16 15
11 11 11 11 11 11 11 11 10 10 10 10 10 10 10 9 9 9 9 9 9 10 10 10 11 12 11 4 0 1 1 2 3 3 6 10 10 13 12 6 7 5 5 4 4 1 2 2 2 1 1 1 2 3 1 0 0 3 3 3 4 1 6 6 6 6 4 6 7 5 4 4 6 4 5 6 4 2 4 9 10 9 9 6 10 12 10 9
11 11 11 11 11 11 11 11 11 10 10 10 10 10 9 9 9 9 9 8 9 9 9 10 11 10 8 0 1 2 1 3 3 3 6 8 9 10 10 3 3 6 3 3 3 4 4 2 1 4 1 0 1 1 3 1 4 4 6 1 4 6 6 7 7 9 3 3 4 1 4 3 2 1 5 4 2 1 8 10 11 11 11 10 10 9 11 10
12 12 11 11 11 11 11 11 11 10 10 10 9 9 9 9 9 9 9 8 8 8 9 10 10 10 3 1 1 2 1 4 2 3 6 10 8 9 8 7 6 7 4 2 2 4 4 4 4 4 2 1 0 3 0 3 3 3 3 4 6 10 5 5 4 3 1 4 3 4 2 1 2 2 3 1 1 6 11 11 9 13 13 10 8 7 5 8
12 11 11 11 11 11 11 11 11 10 10 10 9 9 9 8 8 8 8 8 7 7 7 8 8 8 2 1 2 1 2 5 1 3 6 7 9 8 5 7 6 5 5 3 4 7 2 6 2 3 0 1 1 4 3 3 2 2 4 4 7 7 5 5 4 6 0 2 5 5 3 1 2 1 3 2 4 8 13 11 11 10 10 9 7 7 4 5
12 11 11 11 11 11 11 10 10 10 10 10 10 9 9 8 7 7 7 7 7 7 6 5 7 3 2 0 2 5 2 3 3 4 5 5 5 4 4 8 7 8 8 5 7 6 4 3 2 2 1 1 2 1 2 3 0 2 0 4 7 7 3 4 1 3 1 1 2 4 1 2 1 3 3 2 2 6 11 12 11 10 8 7 7 6 6 7
12 12 11 11 10 10 11 11 10 10 10 10 10 10 9 8 7 6 6 5 4 4 4 5 4 2 0 2 7 8 1 3 5 5 3 1 2 1 3 2 5 5 7 4 2 3 5 4 2 1 2 1 1 1 0 1 3 1 2 0 6 6 4 5 2 2 0 0 2 1 3 5 7 4 2 1 6 7 9 7 7 7 7 7 7 7 5 4
12 12 11 11 10 10 10 10 11 11 11 10 10 10 8 6 7 6 6 5 5 6 5 5 1 2 0 4 6 3 2 3 6 5 3 1 1 1 1 2 4 3 1 4 1 4 5 4 4 3 1 2 3 3 3 5 4 1 3 5 0 2 1 6 1 4 1 2 4 2 3 6 7 4 1 1 6 12 10 8 6 6 7 8 7 7 7 5
12 12 11 10 10 10 11 11 11 11 11 11 10 10 7 8 7 6 4 4 4 4 2 2 2 0 0 6 5 8 4 3 1 4 7 5 3 1 2 1 3 6 3 2 0 1 4 5 3 0 2 1 0 2 3 3 5 2 2 2 4 2 3 9 2 3 0 3 6 3 1 7 7 4 3 4 6 6 10 9 8 7 8 9 8 6 6 5
12 11 11 10 10 10 10 11 12 12 11 11 11 11 11 9 7 5 4 4 1 2 3 3 2 0 0 3 1 3 3 0 2 2 4 7 5 3 2 6 0 0 1 4 2 1 0 3 0 2 1 0 4 3 4 6 4 5 3 1 1 2 2 3 3 4 3 1 3 2 6 4 4 3 4 3 8 6 8 8 9 9 10 10 8 6 5 4
13 12 11 11 10 10 10 11 11 11 11 11 12 11 8 5 3 2 2 2 2 1 0 1 0 1 1 2 0 0 1 2 2 1 3 4 7 5 3 1 0 2 0 4 2 4 0 2 1 1 5 3 1 3 1 4 3 2 2 2 1 1 1 1 8 2 4 0 2 1 1 6 4 6 2 1 1 5 6 8 6 6 6 7 6 6 7 7
14 12 12 11 10 10 10 10 10 10 11 9 10 7 0 5 7 7 5 2 0 1 3 2 1 2 5 3 0 2 1 4 2 2 2 1 4 2 1 1 1 3 3 3 1 1 1 1 5 2 3 4 3 3 2 2 3 1 1 1 2 1 1 2 0 1 4 3 3 1 2 10 7 5 4 3 1 5 7 9 9 8 6 6 7 7 6 8
14 13 13 11 11 10 10 9 9 8 8 8 6 8 9 7 3 0 2 1 0 1 1 0 0 1 3 2 4 6 3 5 1 1 1 4 1 2 2 2 4 2 2 3 2 1 3 2 4 4 3 4 2 4 6 4 4 2 5 2 2 2 0 3 2 2 1 0 0 1 5 6 5 3 2 2 0 5 7 2 3 3 3 4 4 5 6 8
14 14 13 12 11 10 8 8 7 6 6 3 3 2 1 1 2 1 1 1 3 4 4 4 3 3 5 6 4 4 4 4 2 1 1 1 7 2 1 0 1 5 2 0 4 2 1 1 1 3 6 6 4 4 3 2 4 4 4 4 2 1 4 4 3 4 1 0 1 1 4 5 5 5 4 3 2 3 4 5 5 5 5 5 6 8 8 9
15 14 13 12 11 9 8 6 5 4 3 1 1 1 2 1 2 3 5 6 5 4 5 6 8 5 5 2 1 3 4 3 2 0 1 3 5 5 1 1 3 1 1 1 1 3 3 2 5 7 7 6 3 3 2 3 1 2 5 2 1 2 0 1 1 3 5 1 1 0 0 5 7 5 3 0 1 5 7 7 6 5 6 6 7 8 9 6
16 15 13 12 10 8 7 5 2 2 4 2 1 1 1 2 1 2 1 5 4 7 7 6 1 4 4 6 3 4 3 2 5 3 2 3 0 2 2 3 2 1 2 0 2 3 3 2 7 7 4 1 2 3 3 3 3 2 2 2 1 2 4 8 2 2 3 0 4 1 3 4 5 5 6 3 7 4 7 10 10 11 9 9 9 9 6 6
16 14 13 11 9 7 5 4 2 3 2 2 1 0 1 2 1 2 1 1 6 1 2 1 3 4 5 3 1 7 2 3 3 2 3 3 1 2 3 2 2 1 0 1 2 1 4 5 3 1 6 4 1 3 4 3 3 3 3 1 4 2 2 4 3 4 5 2 2 1 1 7 8 5 6 4 2 1 4 5 6 7 12 11 13 12 12 11
15 14 12 10 8 5 4 3 6 3 2 2 1 1 2 1 0 2 1 2 4 6 3 5 3 2 4 0 3 5 4 2 2 3 3 4 4 2 3 3 2 0 1 1 3 4 8 5 4 5 4 3 1 1 3 2 4 1 1 1 0 0 1 5 4 4 3 1 2 2 4 7 4 4 5 2 4 1 1 2 3 4 5 5 2 4 10 13
15 14 12 9 7 5 2 2 1 2 3 1 3 5 3 1 1 0 1 3 1 3 2 0 1 3 4 1 2 2 2 0 6 1 1 6 3 2 1 1 1 2 3 3 4 0 8 5 4 1 1 1 2 1 3 5 1 3 4 5 4 2 1 2 2 4 7 2 4 3 3 3 5 6 7 6 6 5 1 2 3 5 5 4 6 10 8 9
15 13 11 9 7 5 1 0 0 2 1 1 0 1 3 3 2 2 5 3 2 3 3 1 0 1 1 0 1 2 3 1 2 4 3 4 5 3 1 1 1 1 1 3 3 3 3 2 1 1 2 1 1 3 3 5 4 1 5 6 4 3 2 1 1 2 1 1 2 1 4 4 6 3 3 3 5 7 7 2 6 4 5 5 9 10 9 11
15 12 11 9 6 5 0 1 0 1 1 1 2 4 4 3 1 2 1 5 2 1 0 1 1 0 2 1 3 2 1 2 2 2 1 1 3 1 2 3 2 1 2 2 4 3 0 3 4 4 4 2 1 2 4 8 6 2 2 6 6 5 2 2 2 4 3 2 2 4 3 2 3 5 3 5 5 7 8 9 7 6 5 8 6 6 7 11
14 12 10 8 6 3 0 0 1 0 1 1 3 4 4 0 3 3 3 1 1 2 1 2 1 1 0 0 3 1 2 1 2 1 0 1 2 2 1 3 4 4 1 1 4 5 1 2 1 2 3 2 2 5 4 6 6 3 3 7 5 3 3 4 3 2 0 0 6 5 1 0 2 7 3 4 4 6 7 7 8 8 8 1 6 9 10 12
14 12 9 7 5 1 1 0 1 1 1 3 4 4 1 4 5 5 3 2 3 0 5 0 2 0 3 1 1 1 1 1 1 1 2 2 3 2 0 2 3 2 1 3 6 3 2 5 3 3 2 3 6 3 7 10 4 2 5 6 6 7 6 3 4 4 1 2 4 3 0 2 6 5 7 2 0 4 6 7 8 6 7 11 11 8 10 11
14 11 9 4 1 0 1 0 3 1 1 3 3 1 3 3 2 1 2 0 1 0 0 2 1 2 2 1 1 3 1 2 1 2 2 2 3 3 1 3 3 1 1 3 1 8 3 4 5 3 3 4 2 0 4 2 2 4 4 5 5 8 4 3 6 3 4 0 6 7 2 2 3 4 6 0 1 1 5 6 5 6 7 9 9 10 9 9
14 11 8 1 1 0 0 2 2 1 2 3 3 3 3 7 2 3 1 1 0 3 2 2 1 4 1 0 1 3 0 1 3 1 1 1 2 4 0 1 5 4 2 4 3 6 5 2 0 3 1 2 3 3 3 1 1 2 1 2 3 1 6 2 4 5 2 3 6 3 1 2 3 4 5 6 5 4 4 5 8 8 9 8 5 6 7 7
14 11 8 5 3 1 1 2 1 0 3 3 5 4 3 3 2 0 2 3 1 2 1 3 1 1 3 0 4 4 1 3 3 3 0 1 0 1 1 5 2 1 3 1 2 4 3 6 2 7 3 5 2 2 2 2 3 5 4 5 2 3 4 1 2 1 3 5 0 1 2 1 4 4 3 8 6 5 2 3 5 5 8 7 4 5 5 3
14 11 6 6 1 0 4 2 1 2 3 5 4 3 2 3 1 2 1 2 1 1 1 2 2 3 1 2 3 3 2 2 3 1 1 0 1 4 2 1 4 2 4 2 1 3 7 4 3 4 4 1 4 3 1 1 1 5 3 3 3 0 1 2 3 1 4 5 4 1 1 1 4 4 1 4 7 4 3 3 3 4 5 4 6 5 5 4
15 7 2 4 6 6 3 0 1 3 3 5 2 2 6 1 1 3 1 1 0 1 2 1 4 3 5 3 1 2 3 1 3 3 1 1 2 2 3 3 2 1 2 2 1 1 2 6 5 1 1 2 3 7 10 6 5 7 4 8 7 6 5 2 3 4 6 4 1 2 2 4 2 2 5 4 5 4 4 4 4 4 6 2 6 8 7 5
15 2 2 1 2 6 9 5 2 2 5 3 8 4 2 3 1 1 1 2 2 2 1 3 0 2 2 3 4 3 2 1 3 2 5 1 1 0 1 1 2 4 2 1 2 2 3 5 7 4 2 1 3 1 4 5 4 0 2 5 5 6 6 4 4 3 1 1 1 1 3 2 3 2 4 3 3 3 3 3 1 2 5 6 12 12 9 7
3 1 1 1 1 2 0 2 4 3 4 4 4 2 1 2 1 2 0 2 0 0 3 2 4 3 1 1 2 2 5 1 4 2 1 1 1 0 0 1 1 2 3 3 3 2 2 1 2 8 2 0 0 1 0 3 3 2 4 4 4 3 9 6 2 2 3 4 4 1 5 2 6 2 0 2 3 2 2 2 4 6 5 8 9 8 8 8
5 3 0 2 1 3 1 2 3 6 6 5 4 1 2 1 3 2 2 1 2 1 2 2 2 1 1 0 1 4 2 2 1 3 3 0 1 2 3 1 2 0 1 2 2 3 2 5 3 3 1 1 2 1 3 3 4 7 1 5 2 2 5 4 3 2 3 3 5 1 5 1 2 2 2 1 1 1 3 3 3 5 6 10 6 7 7 7
2 2 0 1 2 4 2 1 3 6 3 2 1 3 1 1 1 1 0 2 1 2 2 1 1 4 1 0 3 1 4 4 6 3 1 1 1 1 2 2 3 2 4 1 3 2 2 4 4 1 1 6 6 1 4 2 2 3 2 3 1 2 1 3 4 1 1 1 2 1 1 3 4 3 0 3 2 1 3 3 3 7 7 6 5 6 6 6
1 2 1 3 3 3 1 2 6 2 1 2 0 1 1 2 2 1 3 2 1 2 0 2 0 1 2 1 2 1 1 2 1 1 1 1 2 3 3 0 3 6 3 2 1 0 1 1 6 2 0 3 3 3 3 1 3 1 1 2 1 3 2 3 4 3 4 2 2 4 2 4 5 3 3 4 1 1 2 3 5 4 5 5 5 6 6 7
4 1 1 1 4 4 1 2 2 5 2 0 2 2 1 0 1 3 3 2 1 1 1 0 0 0 0 2 2 0 1 2 1 0 0 2 2 1 5 6 1 8 5 1 2 1 0 1 1 2 4 1 1 2 1 4 1 1 2 2 1 2 1 4 1 1 3 4 4 2 2 3 3 4 3 5 4 2 1 2 3 4 5 5 5 5 6 6
1 2 1 2 8 4 4 7 6 2 2 0 1 1 1 0 2 1 6 2 1 0 0 1 3 2 3 1 2 0 0 0 0 0 2 0 1 1 1 3 3 3 4 4 7 2 1 1 3 3 4 1 4 3 2 2 0 1 3 3 6 5 2 1 5 2 1 3 3 4 5 6 7 3 3 3 3 1 1 1 3 4 4 4 5 6 5 6
2 2 1 3 8 2 4 1 1 0 2 2 0 0 1 2 1 3 2 2 2 1 2 2 0 1 1 1 2 1 1 0 0 0 1 3 1 2 2 4 5 3 1 1 1 1 1 2 1 3 4 3 4 1 1 1 2 1 3 2 3 2 5 4 2 3 1 0 4 3 1 4 2 2 3 2 1 1 3 1 1 3 3 4 4 4 4 3
4 3 5 4 7 2 6 2 2 2 0 1 4 1 1 1 1 1 1 3 2 1 1 1 1 1 2 1 0 1 2 1 3 2 1 2 3 0 4 8 5 2 2 2 2 0 2 1 1 4 6 6 6 3 3 4 2 1 3 1 1 2 2 5 5 5 4 1 1 1 1 3 1 2 2 2 2 1 1 1 1 3 3 4 4 5 5 5
2 2 5 3 7 3 4 3 0 0 2 3 2 2 2 1 0 3 1 2 0 2 0 0 2 1 0 1 1 0 1 0 1 1 0 0 1 3 4 8 7 3 3 1 1 2 1 2 2 1 3 7 8 4 2 3 5 1 1 1 1 3 4 2 4 1 1 5 6 6 7 2 3 2 4 2 1 3 4 2 1 4 3 3 4 4 4 5
2 1 1 8 9 7 2 1 1 1 0 1 2 2 3 1 2 1 1 1 1 0 0 0 0 1 0 0 2 1 4 0 0 3 1 0 1 3 6 9 7 4 2 1 3 1 1 3 2 2 4 5 3 2 5 2 3 0 1 2 0 4 4 1 0 1 2 2 3 3 3 7 6 5 3 2 2 4 2 3 1 1 1 1 2 3 4 5
2 1 5 5 8 6 4 1 3 2 1 1 1 1 0 1 3 4 2 0 0 1 2 1 1 3 2 1 2 3 1 3 1 0 1 2 2 2 1 7 5 2 4 9 6 1 1 1 2 6 6 8 8 6 3 3 2 1 2 1 3 0 1 3 5 4 5 3 4 6 3 2 3 5 4 3 2 4 5 3 3 3 2 2 2 3 4 4
1 3 2 4 6 6 1 4 3 3 1 0 1 1 2 1 2 2 2 1 3 1 2 3 1 0 1 3 0 0 0 0 3 2 0 0 2 2 6 2 3 7 7 4 8 4 3 1 3 2 4 6 5 6 3 2 4 2 4 4 4 2 3 4 5 6 5 5 7 3 6 3 7 6 5 5 4 2 2 1 0 0 0 0 2 2 4 3
2 0 2 1 0 2 4 4 6 3 2 0 1 1 1 2 4 1 5 2 1 3 1 1 5 3 0 1 2 1 1 0 1 1 0 1 1 4 3 3 2 5 4 2 3 2 1 0 1 2 3 4 3 7 2 2 3 4 5 5 6 6 3 7 6 5 6 5 9 5 6 5 5 7 7 7 5 3 4 0 1 2 0 1 1 1 3 4
4 0 0 2 0 1 1 3 2 0 2 2 0 3 2 3 2 1 1 4 4 3 2 0 2 3 2 1 1 1 1 0 1 1 2 0 0 2 2 2 1 4 5 3 3 1 1 3 2 1 3 4 5 3 3 4 3 2 5 6 8 5 8 9 8 5 9 7 9 6 7 10 7 6 8 6 5 4 3 2 2 1 1 0 0 1 2 4
4 3 3 4 2 1 2 3 1 3 2 4 1 2 0 1 2 4 2 0 1 2 1 3 1 2 3 1 2 1 3 4 1 0 1 2 1 1 1 3 2 3 4 1 0 1 3 4 3 1 2 5 4 5 2 4 5 4 6 6 4 4 4 4 3 3 2 6 5 4 5 10 7 6 5 2 0 1 2 3 2 1 1 1 1 0 1 3
2 0 0 2 3 3 2 3 2 2 1 5 4 2 2 2 1 1 3 0 2 1 2 1 1 0 2 2 1 1 3 3 3 1 6 4 0 4 2 4 3 3 4 1 0 1 1 4 1 1 4 4 3 4 7 2 4 7 7 4 4 5 6 4 4 7 6 7 5 3 4 8 8 5 3 0 0 1 4 4 2 2 3 3 2 1 1 2
1 1 1 1 0 3 2 2 1 1 2 1 1 2 0 2 3 1 0 1 4 4 1 2 1 2 0 2 3 3 7 4 6 6 6 4 0 1 1 2 5 1 1 2 0 2 3 1 1 0 3 5 2 5 7 5 6 12 8 6 13 10 9 5 3 3 7 5 4 5 10 6 6 7 8 5 3 4 3 4 2 1 3 3 2 0 1 2
Wind_Direction
336 333 331 330 326 325 331 331 324 321 318 318 314 315 316 318 321 317 316 312 307 309 315 316 318 320 319 323 326 327 343 334 326 345 259 242 194 183 182 83 90 168 187 85 23 53 353 18 51 340 53 64 314 48 286 71 154 66 105 113 268 201 133 214 201 192 223 269 297 337 342 32 72 3 124 79 49 81 77 67 1 33 44 93 109 113 118 122
338 336 336 332 333 326 324 321 320 316 314 311 316 320 322 322 322 317 313 313 315 310 311 316 317 318 321 324 327 331 342 320 294 279 237 229 174 187 183 133 118 126 128 48 100 96 83 359 351 40 57 88 321 325 16 237 117 112 114 102 221 192 237 169 210 237 339 278 289 292 321 199 173 117 296 98 129 115 81 24 57 68 65 83 102 117 124 129
343 342 336 335 328 327 325 321 318 315 316 317 313 316 316 311 308 309 310 310 309 316 314 313 317 321 322 323 325 342 345 311 288 280 262 251 225 189 184 170 139 135 114 124 196 143 111 184 237 83 9 86 349 170 35 265 146 228 123 244 248 210 244 220 230 260 202 290 297 309 316 156 143 60 292 129 142 95 132 129 35 116 134 130 128 129 130 135
341 340 338 335 332 328 324 322 320 322 316 313 312 311 313 311 307 308 315 314 313 312 317 317 319 323 323 322 326 343 320 291 357 256 272 284 219 188 181 164 156 131 93 61 152 129 119 78 54 86 56 66 308 21 106 264 104 272 97 207 232 217 252 266 203 247 269 232 275 291 295 102 26 174 103 152 106 275 262 223 166 170 158 147 142 140 141 141
342 340 337 337 333 330 329 323 322 319 317 315 316 315 311 310 309 312 311 308 309 315 319 322 323 321 323 324 335 323 357 43 183 234 261 304 162 173 152 151 144 131 127 135 88 55 69 82 78 41 72 263 339 6 251 287 183 105 208 208 215 137 259 257 231 233 249 262 250 319 4 188 176 64 145 160 142 201 204 211 235 160 151 149 151 154 148 154
339 339 335 332 332 331 328 325 321 320 316 312 310 309 307 306 305 305 307 308 312 317 322 325 324 326 326 328 358 129 174 52 272 275 306 336 141 149 133 129 127 127 112 63 99 36 80 13 65 39 16 66 231 143 269 202 141 232 305 246 230 220 240 272 170 199 182 338 312 309 286 88 83 139 204 252 197 231 306 99 153 167 162 160 150 148 155 159
336 332 332 331 330 329 329 326 327 324 319 316 310 310 311 309 312 311 311 310 311 319 323 323 326 329 334 340 131 70 140 273 322 265 47 67 123 131 126 117 111 105 91 81 35 53 57 85 83 170 96 33 281 194 262 220 145 156 246 306 297 195 227 259 274 228 289 270 269 220 332 252 124 155 194 218 235 285 314 104 121 122 125 140 151 165 162 166
334 332 330 329 329 324 325 326 323 320 316 311 309 305 304 303 302 304 303 309 314 318 321 324 327 327 344 348 24 325 37 258 259 295 102 89 108 120 108 83 102 100 98 135 140 145 111 106 130 147 87 142 214 161 276 77 56 195 269 246 266 198 236 259 258 270 233 246 264 315 309 241 182 179 126 236 294 332 85 104 116 130 133 139 143 152 154 158
334 332 329 326 324 325 325 324 323 319 316 314 309 306 302 301 301 300 304 307 310 313 319 326 327 331 334 137 90 16 262 238 233 168 100 99 109 115 121 101 115 111 122 117 174 183 141 241 153 185 270 337 195 319 292 169 314 204 226 288 277 270 274 264 289 266 208 248 202 178 263 304 238 270 179 229 307 134 115 107 122 133 144 156 160 159 160 162
333 333 327 323 324 323 323 321 321 320 320 319 318 311 305 301 299 300 305 306 305 314 319 327 331 339 14 57 33 66 267 111 63 123 119 117 116 94 56 129 119 112 105 201 130 139 178 198 176 196 136 265 147 234 139 124 242 164 219 224 258 271 302 293 221 300 158 214 158 188 249 130 331 89 255 320 208 129 112 121 133 145 157 159 159 156 163 158
332 327 322 322 323 323 319 319 318 316 317 319 320 317 311 307 300 296 298 302 308 312 317 324 340 6 34 31 76 233 251 71 69 116 130 126 113 118 147 143 149 135 143 192 197 192 176 144 176 100 49 221 159 282 163 219 163 236 245 316 293 301 244 250 314 292 130 283 165 171 209 261 316 80 227 241 171 139 125 134 143 150 156 158 155 159 156 165
325 325 323 323 322 316 317 315 313 315 314 315 315 316 312 310 304 298 298 304 309 305 305 315 347 345 319 45 154 220 3 141 138 142 136 133 130 144 157 164 161 166 155 173 224 217 163 165 111 61 247 15 306 296 259 231 333 272 70 305 303 349 360 10 291 326 123 273 117 158 79 351 335 189 318 257 143 136 132 141 149 152 151 153 162 159 166 179
326 324 321 318 315 315 313 312 313 308 308 309 311 312 311 311 309 302 296 296 302 322 325 317 341 305 342 354 232 237 265 147 136 118 126 67 105 81 148 172 190 172 185 154 205 220 160 150 109 136 233 123 225 282 198 67 294 359 46 45 328 356 7 348 311 6 131 276 97 229 257 270 262 257 284 86 119 108 110 128 144 149 153 163 172 175 168 173
323 321 320 318 315 312 311 307 304 303 302 309 309 307 307 311 303 300 298 284 284 296 303 314 109 311 254 237 276 239 246 157 119 119 188 131 113 301 66 170 201 228 260 228 132 136 146 185 148 207 136 171 253 282 14 334 21 308 276 66 69 7 293 298 38 298 114 355 35 72 225 283 269 288 269 166 144 142 145 150 152 151 162 173 183 181 180 195
325 324 321 318 313 310 306 305 304 302 305 307 308 307 308 301 293 290 282 288 276 270 299 36 70 65 34 273 263 291 209 101 137 226 177 133 142 331 191 134 211 216 227 216 100 158 106 104 99 53 260 253 230 358 314 11 360 11 50 302 327 79 284 304 352 4 310 330 53 73 16 242 267 263 242 177 141 151 147 156 159 162 171 184 186 182 183 193
326 326 319 316 313 309 307 305 304 306 309 310 310 307 302 290 275 257 253 246 256 229 90 336 271 201 70 326 127 55 50 41 291 238 203 145 152 186 181 162 22 298 299 284 194 219 34 120 148 201 254 357 49 79 33 19 345 356 61 257 337 11 298 1 5 5 353 271 339 152 229 322 326 293 246 204 153 158 151 166 171 174 181 184 187 185 178 165
331 325 323 319 316 312 308 307 306 310 314 316 316 309 302 287 232 205 206 213 249 306 56 148 217 185 52 235 211 20 331 253 257 33 148 197 163 161 104 69 85 5 303 281 57 122 318 150 324 44 38 90 136 89 11 23 335 323 17 99 228 70 345 47 307 31 346 100 270 23 206 246 257 318 322 314 143 143 162 181 179 175 182 190 184 181 180 187
330 327 322 320 313 313 310 307 310 313 318 329 330 314 290 93 123 113 73 82 154 222 289 245 229 339 287 335 77 282 292 291 306 244 102 233 141 127 86 32 337 358 34 39 24 103 312 207 33 178 8 358 33 46 117 232 182 237 322 22 343 311 212 269 38 291 37 1 217 296 262 274 279 330 337 300 162 174 192 185 184 180 181 185 189 191 192 193
330 327 322 320 317 313 313 311 312 317 320 347 335 70 96 99 65 354 105 177 132 350 21 335 82 35 175 219 305 302 283 230 165 122 216 109 117 112 77 90 58 7 353 46 280 61 359 60 27 35 331 323 295 150 168 214 159 188 168 167 144 65 301 306 247 273 38 14 7 266 232 275 319 306 305 344 28 191 213 118 119 151 174 192 203 209 201 205
331 326 323 319 318 314 314 313 312 314 322 358 358 49 77 8 7 347 343 26 212 209 227 230 184 306 309 291 285 265 278 19 126 332 80 229 108 116 36 39 354 52 80 272 308 56 351 91 198 214 225 228 236 193 196 208 144 90 97 102 188 177 286 280 278 262 322 78 212 241 254 267 273 248 246 259 324 239 244 203 186 183 188 192 196 204 209 216
328 327 321 320 316 319 311 316 321 323 312 122 110 111 46 149 38 316 304 246 223 225 231 237 195 204 236 301 286 20 23 314 59 290 206 110 100 113 298 46 27 10 330 205 196 311 66 1 266 223 224 217 220 189 116 78 54 143 125 121 183 199 265 231 259 353 326 138 282 311 310 283 260 273 239 227 41 229 226 224 209 199 193 198 204 206 210 212
331 324 323 318 320 317 316 308 330 318 68 105 161 100 168 199 217 212 94 326 308 225 218 249 344 284 305 263 205 130 96 11 332 303 300 146 317 130 293 96 126 190 311 335 15 21 21 241 256 242 217 122 107 116 141 146 119 48 194 176 10 286 240 286 272 328 332 75 266 4 11 284 277 279 297 184 176 233 220 199 203 194 194 193 199 206 202 194
330 327 318 321 321 318 320 314 182 148 153 136 43 108 197 249 314 286 136 248 274 264 184 178 225 254 284 250 233 109 98 198 242 293 188 104 7 191 148 94 106 155 10 60 226 320 334 295 248 185 132 124 67 95 116 78 61 115 96 60 240 244 30 304 297 345 345 75 315 35 0 292 311 301 277 273 220 193 246 231 225 196 191 197 199 192 193 202
332 325 322 320 322 328 304 73 112 110 202 194 189 209 284 47 215 103 76 247 297 312 208 213 168 194 239 155 200 126 147 261 107 281 279 119 142 168 87 150 102 89 245 159 149 169 219 223 156 112 138 168 208 64 123 120 235 333 147 157 106 296 239 171 264 316 304 11 72 46 18 327 344 348 328 321 324 68 80 310 294 279 248 226 207 181 196 196
331 327 324 323 324 319 358 163 83 236 162 124 251 249 277 0 69 152 86 341 14 294 246 79 216 228 229 345 98 169 232 38 217 217 229 110 137 82 233 204 111 246 195 178 101 225 286 270 158 127 80 77 141 262 213 138 186 322 240 188 205 177 201 270 339 38 21 339 358 66 335 310 300 295 253 288 350 342 309 30 219 243 239 224 198 209 205 214
333 328 327 324 323 337 222 88 279 164 125 274 283 334 324 0 74 119 98 75 340 269 344 292 142 339 105 342 106 184 67 286 227 222 175 201 139 143 59 41 111 260 182 135 179 194 213 331 51 169 136 91 131 196 241 152 177 95 270 191 176 146 118 104 13 71 1 214 295 20 180 265 325 323 299 333 339 308 316 297 273 188 235 210 221 213 203 205
335 331 326 328 331 322 56 9 202 121 30 314 308 309 319 337 138 95 25 0 41 264 1 248 56 260 114 242 149 83 54 266 291 61 92 230 171 22 129 259 9 25 149 160 39 276 97 295 65 49 84 90 96 304 244 148 116 240 236 127 118 107 125 198 146 154 207 249 303 36 96 172 305 293 293 335 346 317 319 305 300 289 188 222 236 235 218 210
334 329 328 327 337 302 193 339 28 61 205 270 307 323 317 257 101 52 79 71 257 288 27 309 218 234 80 279 145 153 203 245 22 288 220 274 111 358 93 216 170 193 168 91 246 258 142 306 11 20 78 99 199 212 185 154 135 218 179 133 153 157 185 135 124 149 225 20 279 329 338 309 263 267 318 6 6 323 308 292 290 302 324 247 226 233 225 221
330 329 325 326 344 105 102 152 122 219 268 281 309 308 329 73 88 101 108 102 254 42 229 83 307 16 333 7 64 16 331 13 98 262 320 53 35 145 113 242 152 138 30 143 212 284 276 208 243 153 131 273 231 224 157 170 189 276 141 83 81 70 65 101 101 102 357 80 272 269 246 211 289 277 319 326 286 290 275 292 298 312 309 311 302 269 232 222
326 326 324 316 28 317 302 27 212 234 280 293 299 0 52 51 34 40 16 222 358 6 333 254 28 262 38 68 320 7 243 307 173 317 39 153 327 40 43 132 136 98 227 4 223 221 253 302 168 126 195 206 157 120 182 125 99 112 88 67 23 42 38 25 64 92 66 38 258 237 275 151 274 266 235 45 187 244 310 305 312 322 324 303 286 269 258 225
324 319 315 252 168 210 144 346 262 245 269 307 359 53 73 43 114 100 102 231 45 275 2 7 276 10 38 117 318 314 75 342 326 39 308 331 325 33 61 324 44 48 35 355 308 324 345 350 169 247 58 110 105 70 34 96 106 123 58 119 58 344 11 39 346 37 90 276 258 293 191 105 182 301 341 245 286 274 242 276 302 317 309 298 284 293 273 234
322 314 293 184 238 1 157 262 227 201 351 17 54 59 76 256 11 106 205 328 82 292 67 292 302 71 360 298 81 336 325 344 348 26 346 8 108 159 186 172 183 23 341 355 298 351 313 242 244 317 245 166 115 86 323 44 17 76 74 46 115 265 42 321 3 260 201 199 278 61 144 51 241 217 271 302 299 307 268 225 261 288 306 297 339 339 320 275
321 311 282 209 250 267 241 232 102 15 33 44 68 49 58 95 217 273 306 328 252 144 295 171 275 32 306 61 345 320 315 91 309 86 143 301 132 289 258 187 201 172 245 258 279 20 281 293 332 279 337 136 119 134 253 50 356 112 151 138 85 77 45 248 284 219 308 295 272 314 319 251 246 296 251 280 295 282 308 303 292 281 285 321 23 20 22 357
319 312 163 202 202 229 242 84 43 360 39 41 74 32 45 68 230 188 290 233 264 339 325 30 343 21 46 102 337 1 30 250 42 325 27 270 20 302 330 20 74 14 73 165 269 184 5 339 308 147 212 300 169 189 182 173 163 204 136 148 185 147 161 234 196 208 218 203 308 290 84 232 115 228 330 297 278 321 342 318 292 289 274 340 58 49 35 28
317 330 182 302 240 252 244 252 250 107 80 64 52 88 136 240 224 193 242 300 285 334 300 360 82 71 355 17 329 6 90 304 28 13 22 35 311 6 319 339 333 106 143 103 263 71 217 208 256 247 256 347 196 140 121 95 63 86 157 87 90 230 145 219 204 155 206 175 19 206 209 190 142 318 292 315 320 336 327 351 318 323 333 24 48 41 31 32
5 349 118 321 330 292 87 167 126 80 85 55 76 48 176 197 11 184 65 187 10 102 291 9 76 62 316 323 319 15 317 105 325 64 341 46 198 282 188 229 342 169 137 167 203 186 12 310 278 318 64 61 296 143 264 133 205 249 106 179 210 159 107 84 95 28 104 49 262 161 326 309 298 22 303 334 314 309 341 16 45 29 360 37 40 34 28 27
25 329 18 319 287 310 321 140 122 82 60 90 93 244 210 281 199 161 270 317 256 121 67 75 311 98 317 277 249 327 315 47 338 51 311 323 3 326 333 328 214 45 183 163 285 187 160 250 294 92 333 349 20 4 97 15 137 94 192 235 151 119 121 130 212 347 56 179 253 44 211 186 98 217 284 324 316 10 357 12 28 27 29 51 28 29 22 18
357 16 250 10 334 350 90 194 75 52 78 81 105 249 227 62 223 206 255 4 19 35 92 94 283 93 254 126 317 282 311 86 303 45 296 325 94 319 357 337 287 64 340 189 150 291 135 320 300 300 241 289 349 26 13 0 43 150 201 191 115 268 236 323 89 225 190 253 270 312 275 270 180 234 147 241 198 83 353 334 25 36 32 35 32 35 34 20
53 80 54 294 358 29 28 41 70 75 58 52 263 45 261 227 253 57 332 218 130 119 87 239 161 313 133 153 235 297 313 56 280 81 31 296 100 1 49 323 312 345 19 118 67 235 38 202 296 302 131 295 330 68 242 284 333 45 54 28 352 100 161 127 193 172 125 239 71 292 53 231 222 217 223 138 219 257 310 356 22 7 8 8 11 14 33 44
24 37 334 238 337 22 43 70 58 44 70 171 211 216 224 271 309 293 344 42 331 80 252 142 222 247 304 228 151 45 299 139 136 251 112 274 125 33 27 340 353 314 9 342 126 35 319 110 224 277 295 323 227 0 246 167 147 334 30 331 7 32 209 101 28 116 175 174 175 185 319 282 273 214 162 168 211 224 245 2 351 351 348 353 8 14 9 23
335 100 267 301 343 338 62 44 51 41 105 241 159 244 330 13 333 297 320 17 38 263 159 192 160 180 208 101 300 225 62 34 71 160 195 335 65 282 5 10 312 298 343 12 48 359 75 75 206 306 8 286 237 238 197 169 163 177 166 206 167 130 170 171 264 18 78 107 206 133 232 268 268 170 223 212 218 220 314 295 329 336 347 353 360 12 11 18
62 14 279 318 338 44 84 48 23 342 96 124 115 178 309 354 49 306 342 330 58 336 24 108 112 142 136 202 188 163 139 171 225 69 276 153 7 105 304 355 273 239 42 62 272 264 134 161 84 274 231 227 231 252 282 276 131 185 131 230 133 129 109 102 162 267 31 271 122 159 119 275 247 233 231 238 250 246 304 350 14 351 357 2 4 9 12 33
46 231 260 326 347 66 64 59 306 35 97 240 302 299 273 349 168 294 16 345 353 50 2 37 204 93 249 171 210 151 168 228 162 211 186 106 166 206 289 317 304 15 80 334 36 13 122 45 7 301 306 299 316 334 64 60 90 48 13 61 95 164 182 177 178 182 153 116 117 30 216 242 279 259 298 323 295 282 319 11 78 33 6 5 5 5 7 16
223 264 323 307 7 80 77 226 213 258 287 321 27 284 261 210 88 360 13 312 89 334 66 304 357 141 95 48 94 117 216 197 280 90 48 120 112 223 345 8 3 51 47 279 101 262 50 301 128 13 2 341 342 346 8 335 54 79 160 332 57 71 70 139 106 38 126 222 171 143 232 260 263 348 1 339 22 84 83 31 77 75 17 2 358 359 359 2
290 281 243 303 351 48 116 184 134 163 335 343 342 344 352 344 214 192 206 304 351 130 93 351 234 288 25 51 69 75 27 142 265 343 109 45 251 316 332 23 356 68 22 23 295 333 148 212 115 223 220 249 263 283 269 278 239 306 324 319 317 117 130 57 196 20 172 275 141 166 246 254 274 315 328 343 18 89 71 96 63 113 119 28 6 359 358 14
30 359 308 336 12 24 66 52 90 123 92 356 26 280 143 325 327 343 107 125 60 68 96 238 340 63 44 36 32 26 0 1 76 279 57 324 302 322 278 340 31 15 352 29 38 109 161 27 147 165 170 202 214 226 250 121 79 171 247 209 235 50 71 88 95 101 197 212 198 232 162 67 267 275 310 317 338 132 122 82 76 60 5 346 345 355 8 4
161 66 358 334 342 39 66 11 26 35 60 111 107 322 353 313 269 310 26 146 13 84 30 49 318 15 288 76 174 80 322 320 358 83 18 278 259 245 305 254 307 5 10 31 3 82 62 342 267 170 211 211 206 216 243 171 253 238 154 231 248 196 160 138 156 219 184 112 263 234 205 179 241 262 259 265 271 270 261 225 129 328 338 322 317 322 333 351
60 295 95 204 115 304 28 335 23 349 328 121 230 50 30 6 6 29 331 52 142 21 113 330 32 36 176 173 127 131 1 68 13 179 344 237 348 324 12 7 61 333 18 25 354 94 131 225 265 129 260 247 243 254 279 327 234 225 201 196 215 218 148 187 221 200 139 183 230 232 188 198 249 223 219 218 206 206 204 210 248 258 228 18 26 14 360 349
110 275 134 307 7 259 173 283 315 82 20 28 139 46 22 56 358 251 197 320 19 349 45 128 316 319 16 27 104 171 174 37 301 314 181 225 20 348 357 341 240 344 45 38 24 152 84 247 223 185 277 308 299 258 259 217 266 280 247 214 221 189 205 203 215 196 186 219 225 214 177 221 213 223 218 221 199 201 229 259 322 21 350 336 357 10 4 347
16 28 315 6 82 60 315 8 54 53 66 337 69 336 105 6 342 336 334 111 357 323 31 91 242 297 9 63 109 69 227 183 192 178 236 138 339 182 263 203 266 332 36 15 31 312 114 271 144 215 318 275 275 298 250 216 196 252 255 249 240 240 261 233 228 252 235 282 279 232 204 243 254 217 218 241 342 334 314 287 249 235 220 199 189 80 344 335
292 188 144 25 20 313 337 20 31 66 58 351 63 310 32 340 11 344 272 339 74 5 358 318 195 159 13 54 57 288 268 185 161 211 181 151 239 225 132 288 159 295 352 3 85 302 63 266 32 314 274 278 229 237 264 284 222 232 247 246 243 225 232 212 203 210 168 222 237 229 259 261 257 231 237 298 337 208 216 233 238 213 204 196 165 162 309 307
342 293 39 119 61 342 18 335 19 57 37 264 358 283 56 296 321 296 87 74 85 73 345 284 216 132 348 40 345 303 315 249 210 211 180 210 150 227 224 198 155 192 242 194 271 219 184 151 193 267 263 253 235 222 253 285 341 283 246 208 222 212 206 224 265 168 208 193 210 215 238 227 210 175 162 209 201 241 255 238 235 236 213 195 186 199 242 265